Time,TemperatureF,DewpointF,PressureIn,WindDirection,WindDirectionDegrees,WindSpeedMPH,WindSpeedGustMPH,Humidity,HourlyPrecipIn,Conditions,Clouds,dailyrainin,SolarRadiationWatts/m^2,SoftwareType,DateUTC
2013-02-26 00:00:00,37.4,34.1,30.34,NE,53,3.0,16.0,88,0.00,-RA,OVC,0.00,0.0,WeatherDisplay:10.37,2013-02-26 00:00:00,
2013-02-26 00:30:00,37.1,34.4,30.33,NNE,24,1.0,15.0,90,0.00,-RA,OVC,0.00,0.0,WeatherDisplay:10.37,2013-02-26 00:30:00,
2013-02-26 01:00:00,36.9,34.5,30.34,NNE,17,1.0,12.0,91,0.01,-RA,OVC,0.01,0.0,WeatherDisplay:10.37,2013-02-26 01:00:00,
2013-02-26 01:30:00,36.9,34.5,30.34,NNE,27,3.0,12.0,91,0.00,-RA,OVC,0.01,0.0,WeatherDisplay:10.37,2013-02-26 01:30:00,
2013-02-26 02:00:00,37.1,35.0,30.34,NE,53,3.0,13.0,92,0.00,-RA,OVC,0.01,0.0,WeatherDisplay:10.37,2013-02-26 02:00:00,
2013-02-26 02:30:00,37.1,34.7,30.33,NNE,25,3.0,13.0,91,0.00,-RA,OVC,0.01,0.0,WeatherDisplay:10.37,2013-02-26 02:30:00,
2013-02-26 03:00:00,37.1,34.7,30.33,ENE,62,3.0,14.0,91,0.00,-RA,OVC,0.01,0.0,WeatherDisplay:10.37,2013-02-26 03:00:00,
2013-02-26 03:30:00,36.9,35.0,30.34,NE,38,1.0,14.0,93,0.00,-RA,OVC,0.01,0.0,WeatherDisplay:10.37,2013-02-26 03:30:00,
2013-02-26 04:00:00,37.0,35.1,30.34,NE,34,3.0,12.0,93,0.00,-RA,OVC,0.01,0.0,WeatherDisplay:10.37,2013-02-26 04:00:00,
2013-02-26 04:30:00,37.2,35.3,30.34,NNE,16,7.0,12.0,93,0.00,-RA,OVC,0.01,0.0,WeatherDisplay:10.37,2013-02-26 04:30:00,
2013-02-26 05:00:00,37.3,35.7,30.34,NE,40,5.0,12.0,94,0.00,-RA,OVC,0.01,0.0,WeatherDisplay:10.37,2013-02-26 05:00:00,
2013-02-26 05:30:00,37.4,35.9,30.35,NE,45,5.0,12.0,94,0.00,-RA,OVC,0.01,0.0,WeatherDisplay:10.37,2013-02-26 05:30:00,
2013-02-26 06:00:00,37.6,36.0,30.36,NE,50,1.0,14.0,94,0.00,-RA,OVC,0.01,0.0,WeatherDisplay:10.37,2013-02-26 06:00:00,
2013-02-26 06:30:00,37.8,36.2,30.37,NE,47,1.0,10.0,94,0.01,-RA,OVC,0.02,0.0,WeatherDisplay:10.37,2013-02-26 06:30:00,
2013-02-26 07:00:00,38.0,36.4,30.39,ENE,63,1.0,10.0,94,0.00,-RA,OVC,0.02,0.0,WeatherDisplay:10.37,2013-02-26 07:00:00,
2013-02-26 07:30:00,38.2,36.6,30.39,NNE,22,2.0,14.0,94,0.00,-RA,OVC,0.02,0.0,WeatherDisplay:10.37,2013-02-26 07:30:00,
2013-02-26 08:00:00,38.3,36.7,30.40,NE,43,2.0,10.0,94,0.00,-RA,OVC,0.02,7.0,WeatherDisplay:10.37,2013-02-26 08:00:00,
2013-02-26 08:30:00,38.4,36.8,30.42,NE,49,3.0,12.0,94,0.00,-RA,OVC,0.02,12.0,WeatherDisplay:10.37,2013-02-26 08:30:00,
2013-02-26 09:00:00,38.6,37.0,30.42,ENE,74,5.0,12.0,94,0.00,-RA,OVC,0.02,12.0,WeatherDisplay:10.37,2013-02-26 09:00:00,
2013-02-26 09:30:00,38.7,36.8,30.43,East,90,2.0,12.0,93,0.00,-RA,OVC,0.02,19.0,WeatherDisplay:10.37,2013-02-26 09:30:00,
2013-02-26 10:00:00,38.8,36.9,30.44,East,83,6.0,12.0,93,0.00,-RA,OVC,0.02,25.0,WeatherDisplay:10.37,2013-02-26 10:00:00,
2013-02-26 10:30:00,38.9,37.3,30.45,ENE,75,2.0,12.0,94,0.00,-RA,OVC,0.02,42.0,WeatherDisplay:10.37,2013-02-26 10:30:00,
2013-02-26 11:00:00,39.1,37.5,30.46,ENE,77,2.0,9.0,94,0.00,-RA,OVC,0.02,30.0,WeatherDisplay:10.37,2013-02-26 11:00:00,
2013-02-26 11:30:00,39.3,37.7,30.46,ENE,77,0.0,9.0,94,0.00,-RA,OVC,0.02,53.0,WeatherDisplay:10.37,2013-02-26 11:30:00,
2013-02-26 12:00:00,39.5,37.9,30.46,East,86,2.0,10.0,94,0.00,-RA,OVC,0.02,49.0,WeatherDisplay:10.37,2013-02-26 12:00:00,
2013-02-26 12:30:00,39.6,37.7,30.46,ENE,69,0.0,9.0,93,0.00,-RA,OVC,0.02,93.0,WeatherDisplay:10.37,2013-02-26 12:30:00,
2013-02-26 13:00:00,39.9,38.1,30.45,East,82,2.0,8.0,93,0.00,-RA,OVC,0.02,47.0,WeatherDisplay:10.37,2013-02-26 13:00:00,
2013-02-26 13:30:00,40.0,37.9,30.46,NE,52,2.0,10.0,92,0.00,-RA,OVC,0.02,46.0,WeatherDisplay:10.37,2013-02-26 13:30:00,
2013-02-26 14:00:00,40.1,37.6,30.46,NE,44,2.0,12.0,91,0.00,-RA,OVC,0.02,33.0,WeatherDisplay:10.37,2013-02-26 14:00:00,
2013-02-26 14:30:00,40.3,37.6,30.45,ENE,64,3.0,12.0,90,0.00,-RA,OVC,0.02,44.0,WeatherDisplay:10.37,2013-02-26 14:30:00,
2013-02-26 15:00:00,40.4,37.7,30.46,NE,46,0.0,7.0,90,0.00,-RA,OVC,0.02,23.0,WeatherDisplay:10.37,2013-02-26 15:00:00,
2013-02-26 15:30:00,40.4,37.7,30.46,East,98,0.0,10.0,90,0.00,-RA,OVC,0.02,21.0,WeatherDisplay:10.37,2013-02-26 15:30:00,
2013-02-26 16:00:00,40.5,37.8,30.47,ENE,59,1.0,10.0,90,0.00,-RA,OVC,0.02,21.0,WeatherDisplay:10.37,2013-02-26 16:00:00,
2013-02-26 16:30:00,40.5,37.5,30.47,NE,52,3.0,9.0,89,0.00,-RA,OVC,0.02,11.0,WeatherDisplay:10.37,2013-02-26 16:30:00,
2013-02-26 17:00:00,40.6,37.6,30.47,NNE,26,5.0,12.0,89,0.00,-RA,OVC,0.02,5.0,WeatherDisplay:10.37,2013-02-26 17:00:00,
2013-02-26 17:30:00,40.6,37.3,30.47,NNE,28,0.0,15.0,88,0.00,-RA,OVC,0.02,0.0,WeatherDisplay:10.37,2013-02-26 17:30:00,
2013-02-26 18:00:00,40.6,37.3,30.48,ENE,76,2.0,12.0,88,0.00,-RA,OVC,0.02,0.0,WeatherDisplay:10.37,2013-02-26 18:00:00,
2013-02-26 18:30:00,40.5,37.2,30.49,NE,53,2.0,12.0,88,0.00,-RA,OVC,0.02,0.0,WeatherDisplay:10.37,2013-02-26 18:30:00,
2013-02-26 19:00:00,40.3,37.0,30.50,East,84,3.0,12.0,88,0.00,-RA,OVC,0.02,0.0,WeatherDisplay:10.37,2013-02-26 19:00:00,
2013-02-26 19:30:00,40.2,36.9,30.50,NE,54,2.0,12.0,88,0.00,-RA,OVC,0.02,0.0,WeatherDisplay:10.37,2013-02-26 19:30:00,
2013-02-26 20:00:00,40.1,37.1,30.50,NE,34,1.0,12.0,89,0.00,-RA,OVC,0.02,0.0,WeatherDisplay:10.37,2013-02-26 20:00:00,
2013-02-26 20:30:00,40.1,37.1,30.50,NE,37,2.0,12.0,89,0.00,-RA,OVC,0.02,0.0,WeatherDisplay:10.37,2013-02-26 20:30:00,
2013-02-26 21:00:00,40.0,37.0,30.50,NE,48,1.0,12.0,89,0.00,-RA,OVC,0.02,0.0,WeatherDisplay:10.37,2013-02-26 21:00:00,
2013-02-26 21:30:00,39.8,37.1,30.51,NE,49,3.0,12.0,90,0.00,-RA,OVC,0.02,0.0,WeatherDisplay:10.37,2013-02-26 21:30:00,
2013-02-26 22:00:00,39.5,37.1,30.51,NE,54,0.0,10.0,91,0.00,-RA,OVC,0.02,0.0,WeatherDisplay:10.37,2013-02-26 22:00:00,
2013-02-26 22:30:00,39.2,37.0,30.51,East,80,5.0,12.0,92,0.00,-RA,OVC,0.02,0.0,WeatherDisplay:10.37,2013-02-26 22:30:00,
2013-02-26 23:00:00,39.1,36.9,30.51,ENE,76,1.0,14.0,92,0.00,-RA,OVC,0.02,0.0,WeatherDisplay:10.37,2013-02-26 23:00:00,
2013-02-26 23:30:00,38.9,36.8,30.51,ENE,72,5.0,10.0,92,0.00,-RA,OVC,0.02,0.0,WeatherDisplay:10.37,2013-02-26 23:30:00,